TimeCST,TemperatureF,Dew PointF,Humidity,Sea Level PressureIn,VisibilityMPH,Wind Direction,Wind SpeedMPH,Gust SpeedMPH,PrecipitationIn,Events,Conditions,WindDirDegrees,DateUTC
12:53 AM,42.1,35.1,76,30.19,10.0,Calm,Calm,-,N/A,,Clear,0,2005-01-25 06:53:00
1:53 AM,43.0,37.0,80,30.18,10.0,SW,5.8,-,N/A,,Clear,220,2005-01-25 07:53:00
2:53 AM,43.0,37.0,80,30.16,10.0,SSW,4.6,-,N/A,,Clear,210,2005-01-25 08:53:00
3:53 AM,42.1,37.9,85,30.15,10.0,SSW,5.8,-,N/A,,Clear,210,2005-01-25 09:53:00
4:53 AM,43.0,39.0,86,30.14,10.0,South,3.5,-,N/A,,Clear,190,2005-01-25 10:53:00
5:53 AM,42.1,39.0,89,30.13,9.0,South,4.6,-,N/A,,Clear,180,2005-01-25 11:53:00
6:53 AM,43.0,39.9,89,30.14,8.0,SE,3.5,-,N/A,,Clear,140,2005-01-25 12:53:00
7:53 AM,43.0,39.9,89,30.13,3.0,ESE,3.5,-,N/A,,Clear,120,2005-01-25 13:53:00
8:53 AM,51.1,45.0,80,30.14,10.0,SW,9.2,-,N/A,,Clear,220,2005-01-25 14:53:00
9:53 AM,59.0,48.0,67,30.13,10.0,SW,10.4,-,N/A,,Clear,220,2005-01-25 15:53:00
10:53 AM,63.0,50.0,63,30.11,10.0,SW,11.5,-,N/A,,Clear,230,2005-01-25 16:53:00
11:53 AM,66.9,50.0,54,30.05,10.0,SSW,11.5,-,N/A,,Partly Cloudy,210,2005-01-25 17:53:00
12:53 PM,69.1,48.9,49,30.00,10.0,SW,12.7,-,N/A,,Clear,220,2005-01-25 18:53:00
1:53 PM,71.1,50.0,47,29.96,10.0,SW,12.7,-,N/A,,Clear,230,2005-01-25 19:53:00
2:53 PM,72.0,50.0,46,29.94,10.0,SW,12.7,-,N/A,,Smoke,220,2005-01-25 20:53:00
3:53 PM,71.1,50.0,47,29.91,10.0,SSW,11.5,-,N/A,,Clear,210,2005-01-25 21:53:00
4:53 PM,69.1,52.0,54,29.90,10.0,South,12.7,-,N/A,,Clear,190,2005-01-25 22:53:00
5:53 PM,64.9,52.0,63,29.88,10.0,South,8.1,-,N/A,,Clear,190,2005-01-25 23:53:00
6:53 PM,63.0,53.1,70,29.91,10.0,South,11.5,-,N/A,,Clear,180,2005-01-26 00:53:00
7:53 PM,62.1,54.0,75,29.92,10.0,SSW,11.5,-,N/A,,Clear,200,2005-01-26 01:53:00
8:53 PM,61.0,54.0,78,29.92,10.0,South,10.4,-,N/A,,Clear,190,2005-01-26 02:53:00
9:53 PM,60.1,54.0,80,29.94,10.0,SSW,10.4,-,N/A,,Clear,200,2005-01-26 03:53:00
10:53 PM,60.1,55.0,83,29.93,10.0,SSW,8.1,-,N/A,,Clear,210,2005-01-26 04:53:00
11:46 PM,60.8,55.4,82,29.90,10.0,SW,11.5,-,N/A,,Scattered Clouds,230,2005-01-26 05:46:00
11:53 PM,61.0,55.9,83,29.91,10.0,SW,10.4,-,N/A,,Mostly Cloudy,230,2005-01-26 05:53:00